Погода Нарьян-Мар

Хотите узнать прогноз погоды Нарьян-Мар? Тогда Вам сюда: Погода Нарьян-Мар

Поиск расширенной информации на нашем сайте:

Полезная информация:

Новости сайта



02.01.2020
Опубликован Долгосрочный прогноз погоды по городам России и ближнего зарубежья на январь 2020 года.
Карты: Прогноз на январь и февраль 2020 года, Сравнение прогнозируемой аномалии приземной температуры воздуха на январь 2020 года по разным моделям.




Погода Нарьян-Мар - сегодня

Время (UTC), дата Ветер
(°,м/с) 
Видим.   Явления Облачность Т
(°С)
Тd
(°С)
f(%) Тe
(°С)
Pmin
(гПа)
dP
(гПа)
Po
(мм)
O2
(г/м3)
Тmin Tmax R s Состояние
почвы
12 29.11.20 200 (Ю) 5{12}  20000 м    9/0 средняя, верхняя 
[Ac trans|Ci fib]
-6.2 -10.3 73 -10  1033.9  774  320           
15 29.11.20 210 (ЮЗ) 6-10{13}  20000 м    9/0 средняя 
[Ac trans]
-5.1 -9.2 73 -10  1032.8  -1.1  774  319    -5.1       
18 29.11.20 210 (ЮЗ) 5{13}  20000 м    9/0 средняя 
[Ac As]
-5.3 -9.3 73 -9  1032.6  -0.2  773  319           
21 29.11.20 200 (Ю) 5{11}  20000 м    9/0 средняя 
[Ac As]
-5.6 -8.3 81 -10  1031.9  -0.7  773  319           
00 30.11.20 210 (ЮЗ) 5{10}  20000 м    10/8 330 м средняя 
[St|Ac und]
-5.7 -8 84 -10  1031.6  -0.2  773  319           
03 30.11.20 220 (ЮЗ) 5{11}  20000 м    10/10 300 м 
[St]
-5 -7 86 -9  1013.6  773  318  -5.8      равномерный
сухой снег
100% 
06 30.11.20 200 (Ю) 6-10{11}  20000 м    10/10 330 м 
[Sc]
-3.9 -6.1 85 -8  1030.8  -0.9  772  316           
09 30.11.20 200 (Ю) 5{12}  20000 м    10/10 360 м 
[St]
-4.4 -6.7 84 -8  1030.1  -0.7  772  317           
12 30.11.20 220 (ЮЗ) 6-11{11}  20000 м    10/10 330 м 
[St]
-2.6 -5.1 83 -7  1029.7  -0.4  771  314           
15 30.11.20 210 (ЮЗ) 4{12}  20000 м    10/10 300 м 
[St]
-2.1 -4.3 85 -5  1028.5  -1.2  770  313    -2.1  0.0     
18 30.11.20 200 (Ю) 5{10}  20000 м    10/10 1350 м 
[Sc]
-2.6 -4.9 84 -6  1027.7  -0.9  770  314           
21 30.11.20 210 (ЮЗ) 6-12{12}  20000 м    10/10 360 м 
[Sc]
-1.9 -4.3 84 -6  1027.5  -0.2  770  313           
00 01.12.20 190 (Ю) 5{12}  20000 м    3/0 средняя 
[Ac lent]
-2.1 -4.3 85 -5  1025.6  -1.9  768  312           
03 01.12.20 190 (Ю) 6-10{11}  20000 м    9/6 540 м средняя 
[Sc|Ac trans]
-1.1 -4 81 -5  1023.6  -2  767  311  -2.8      равномерный
сухой снег
100% 
06 01.12.20 200 (Ю) 6-10{12}  20000 м    10/10 400 м 
[St]
-1.5 -3.5 86 -5  1022.1  -1.5  766  311           
09 01.12.20 200 (Ю) 7-14{14}  20000 м    10/10 360 м 
[St]
-1.3 -3.8 83 -5  1021.5  -0.6  765  310           
12 01.12.20 200 (Ю) 7-11{14}  20000 м    10/10 360 м 
[St]
-1.7 -4.5 81 -6  1020.4  -1.1  764  310           
15 01.12.20 200 (Ю) 7-12{13}  20000 м  слаб. ливневой снег  10/10 600 м кучево-дожд. 
[Cb cap]
-1.4 -4.3 81 -6  1019.3  -1.1  763  310    -1  0.0     
21 01.12.20 210 (ЮЗ) 7-12{12}  4000 м  слаб. ливневой снег  10/10 630 м кучево-дожд. 
[Cb calv]
-1.8 -5.2 78 -6  1017.3  -0.9  762  310           
00 02.12.20 210 (ЮЗ) 7-13{13}  20000 м  {ливн. осадки}  9/9 570 м 
[Sc]
-1.9 -5.3 78 -6  1017.2  0.1  762  310           
03 02.12.20 220 (ЮЗ) 6-13{14}  4000 м  слаб. ливневой снег  9/9 700 м кучево-дожд. 
[Cb calv]
-1.6 -5.4 75 -5  1017.5  0.3  762  309  -2.2    0.2  равномерный
сухой снег
100% 
06 02.12.20 220 (ЮЗ) 6-10{13}  4000 м  слаб. ливневой снег  10/10 330 м кучево-дожд. 
[Cb cap]
-1.6 -3.7 86 -5  1018.2  0.7  763  310           
09 02.12.20 230 (ЮЗ) 5-10{12}  4000 м  слаб. ливневой снег  10/10 330 м кучево-дожд. 
[Cb cap]
-1.1 -3.2 86 -4  1019.4  1.2  764  309           
12 02.12.20 220 (ЮЗ) 5-10{12}  4000 м  слаб. ливневой снег  10/10 330 м кучево-дожд. 
[Cb cap]
-1.1 -3.1 86 -4  1020.2  0.8  764  310           
15 02.12.20 220 (ЮЗ) 5{11}  н/о    н/о 
-1.1 -3.2 86 -4  1020.9  0.7  765  310    -1       
Время (UTC), дата Ветер
(°,м/с) 
Видим.   Явления Облачность Т
(°С)
Тd
(°С)
f(%) Тe
(°С)
Pmin
(гПа)
dP
(гПа)
Po
(мм)
O2
(г/м3)
Тmin Tmax R s Состояние
почвы

Для получения пояснительной информации подведите курсор к названию столбца.

ПОГОДА Нарьян-Мар - архив

Всё, что Вы хотите узнать о погоде Нарьян-Мар - удобно и подробно!

Выберите нужную дату (начиная с 1 января 2019* года) и нажмите кнопку "Найти".
Будут отображены архивные сводки погоды по пункту Нарьян-Мар, начиная с указанной даты.


Отображать данные в формате CSV (для использования в таблицах Excel)


Внимание! Наш архив погоды предназначен исключительно для личного некоммерческого использования в познавательных целях. Если Вам необходимы официальные справки о состоянии погоды (для производственных, юридических, коммерческих и т.п. целей), обращайтесь в органы Росгидромета.

*Примечание: данная дата относится к архиву по метеостанциям СССР (Россия, СНГ, Балтия).
Архив по метеостанциям Зарубежной Европы и Азии (кроме Китая) хранится 10 дней, по другим регионам земного шара (Китай, Африка, Америка, Австралия, Океания) - 1 день.

Нарьян-Мар - район местоположения метеостанции


Название, широта, долгота, высота метеостанции:
Нарьян-Мар 67.6°ш. 53°д. 12 м над ур. моря [Российская Федерация]

Дополнительная информация

В oтличие oт бoльшинства пoгoдных сайтoв мы публикуем пoдрoбную метеoинфoрмацию в детальнoм прoфессиoнальнoм фoрмате.

Характеристики температуры и влажнoсти вoздуха измеряются на высoте 2 м в тени вдали oт зданий и деревьев.
Скoрoсть ветра измеряется на высoте 10 м (на урoвне рoста челoвека скoрoсть ветра ниже в 1.5-2 раза). Если метеoстанция нахoдится в гoрoде или в лесу, тo скoрoсть ветра занижена на 2-4 м/с пo сравнению с oткрытым местoм. Скoрoсть ветра над акватoриями крупных рек и oзёр, а также на вершинах хoлмoв на 2-5 м/с выше, чем в oбычных услoвиях.
Атмoсфернoе давление в разных тoчках местнoсти мoжет значительнo oтличаться oт давления на метеoстанции, в зависимoсти oт услoвий рельефа (при пoдъёме на 10 м давление пoнижается примернo на 1 мм рт.ст.).